{"data":{"norad_id":66886,"intl_designator":"2025-283J","name":"STARLINK-35900","alt_names":[],"object_type":"PAYLOAD","status":"ACTIVE","operator":null,"country":"US","launch_date":"2025-12-04","launch_site_code":"AFWTR","launch_vehicle":null,"mission":null,"orbit_class":"UNKNOWN","rcs_meters":null,"size_class":null,"mass_kg":null,"dimensions":null,"purposes":["comms"],"wikipedia_slug":null,"has_3d_model":false,"image_url":null,"decayed_at":null,"tle_current":{"epoch":"2026-09-20T07:27:14.280480Z","epoch_age_seconds":101399,"freshness":"FRESH","line1":"1 66886U 25283J   26263.31058195  .00015711  00000+0  47501-3 0  9999","line2":"2 66886  53.1582 196.4778 0001155  85.3158 274.7976 15.34409907 45692","mean_motion":15.34409907,"eccentricity":0.0001155,"inclination_deg":53.1582,"raan_deg":196.4778,"arg_perigee_deg":85.3158,"mean_anomaly_deg":274.7976,"bstar":0.00047501,"rev_number":4569,"period_min":93.847152148243,"perigee_km":461.88368102695,"apogee_km":463.46390832052,"semimajor_km":6840.8107946737,"source":"CELESTRAK","updated_at":"2026-09-21T09:00:36.033590Z"}}}